SKL3 NZAA-NZKK

Flight info

Callsign SKL3
Flight time 0h 46m
Altitude 19000
Route KAWAU Q520 SF H275 KK
Aircraft C25C/M-SDE2E3FGHRWXY/LB1

Departure

Time 2026-04-11 08:23
Airport Auckland International Airport (NZAA)

Arrival

Time 2026-04-11 09:09
Airport Kerikeri Airport (NZKK)
Time Latitude Longitude Altitude Speed Heading
2026-04-11 07:59 -37.00305 174.80534 19 ft 0 kts 182°
2026-04-11 08:18 -37.00307 174.80530 19 ft 0 kts 246°
2026-04-11 08:18 -37.00297 174.80516 21 ft 6 kts 323°
2026-04-11 08:18 -37.00262 174.80440 19 ft 12 kts 257°
2026-04-11 08:19 -37.00328 174.80441 20 ft 10 kts 163°
2026-04-11 08:19 -37.00416 174.80401 19 ft 18 kts 238°
2026-04-11 08:19 -37.00518 174.80367 20 ft 17 kts 207°
2026-04-11 08:19 -37.00575 174.80206 19 ft 24 kts 252°
2026-04-11 08:20 -37.00630 174.80006 19 ft 25 kts 251°
2026-04-11 08:20 -37.00688 174.79797 19 ft 26 kts 251°
2026-04-11 08:20 -37.00749 174.79581 19 ft 27 kts 251°
2026-04-11 08:20 -37.00813 174.79348 19 ft 30 kts 252°
2026-04-11 08:21 -37.00879 174.79104 19 ft 30 kts 250°
2026-04-11 08:21 -37.00947 174.78858 19 ft 30 kts 251°
2026-04-11 08:21 -37.01015 174.78612 19 ft 30 kts 250°
2026-04-11 08:21 -37.01083 174.78368 20 ft 30 kts 250°
2026-04-11 08:22 -37.01149 174.78129 19 ft 28 kts 252°
2026-04-11 08:22 -37.01204 174.77929 19 ft 25 kts 250°
2026-04-11 08:22 -37.01297 174.77781 20 ft 23 kts 165°
2026-04-11 08:22 -37.01408 174.77890 19 ft 23 kts 75°
2026-04-11 08:23 -37.01304 174.78270 19 ft 90 kts 70°
2026-04-11 08:23 -37.01015 174.79323 303 ft 155 kts 71°
2026-04-11 08:23 -37.00511 174.80711 858 ft 200 kts 72°
2026-04-11 08:23 -36.99926 174.82380 2309 ft 202 kts 62°
2026-04-11 08:24 -36.98929 174.83638 3830 ft 231 kts 49°
2026-04-11 08:24 -36.97259 174.84698 3747 ft 291 kts 20°
2026-04-11 08:24 -36.95274 174.84808 3748 ft 280 kts
2026-04-11 08:24 -36.93389 174.84710 3755 ft 263 kts
2026-04-11 08:25 -36.91610 174.84701 3756 ft 247 kts 12°
2026-04-11 08:25 -36.89958 174.84820 3762 ft 236 kts 14°
2026-04-11 08:25 -36.88336 174.84927 3762 ft 230 kts 14°
2026-04-11 08:25 -36.86747 174.85014 3766 ft 227 kts 14°
2026-04-11 08:26 -36.85189 174.85096 3766 ft 226 kts 14°
2026-04-11 08:26 -36.83579 174.85188 3769 ft 237 kts 14°
2026-04-11 08:26 -36.81893 174.85274 3766 ft 247 kts 12°
2026-04-11 08:26 -36.80136 174.84791 3932 ft 268 kts 345°
2026-04-11 08:27 -36.78534 174.83842 4717 ft 239 kts 348°
2026-04-11 08:27 -36.77104 174.83014 5513 ft 214 kts 346°
2026-04-11 08:27 -36.75796 174.82247 5919 ft 210 kts 348°
2026-04-11 08:27 -36.74459 174.81472 6215 ft 212 kts 347°
2026-04-11 08:28 -36.73119 174.80692 6521 ft 213 kts 347°
2026-04-11 08:28 -36.71776 174.79901 6821 ft 213 kts 347°
2026-04-11 08:28 -36.70431 174.79111 7125 ft 214 kts 347°
2026-04-11 08:28 -36.69082 174.78324 7415 ft 214 kts 347°
2026-04-11 08:29 -36.67728 174.77528 7709 ft 215 kts 348°
2026-04-11 08:29 -36.66371 174.76735 7993 ft 216 kts 347°
2026-04-11 08:29 -36.65010 174.75940 8277 ft 216 kts 348°
2026-04-11 08:29 -36.63647 174.75140 8565 ft 217 kts 348°
2026-04-11 08:30 -36.62275 174.74341 8862 ft 218 kts 348°
2026-04-11 08:30 -36.60903 174.73535 9134 ft 218 kts 348°
2026-04-11 08:30 -36.59522 174.72731 9393 ft 219 kts 348°
2026-04-11 08:30 -36.58140 174.71922 9662 ft 220 kts 348°
2026-04-11 08:31 -36.56755 174.71115 9904 ft 220 kts 348°
2026-04-11 08:31 -36.55366 174.70304 10152 ft 221 kts 348°
2026-04-11 08:31 -36.53966 174.69486 10384 ft 222 kts 347°
2026-04-11 08:31 -36.52585 174.68684 10639 ft 222 kts 347°
2026-04-11 08:32 -36.51183 174.67863 10898 ft 222 kts 347°
2026-04-11 08:32 -36.49780 174.67045 11109 ft 223 kts 347°
2026-04-11 08:32 -36.48373 174.66227 11329 ft 223 kts 346°
2026-04-11 08:32 -36.46991 174.65419 11792 ft 209 kts 346°
2026-04-11 08:33 -36.45765 174.64681 12511 ft 182 kts 347°
2026-04-11 08:33 -36.44685 174.64054 13085 ft 165 kts 348°
2026-04-11 08:33 -36.43649 174.63497 13327 ft 161 kts 356°
2026-04-11 08:33 -36.42578 174.63193 13593 ft 158 kts 358°
2026-04-11 08:34 -36.41506 174.62852 13817 ft 159 kts 358°
2026-04-11 08:34 -36.40428 174.62520 14047 ft 159 kts 357°
2026-04-11 08:34 -36.39354 174.62190 14273 ft 160 kts 357°
2026-04-11 08:34 -36.38289 174.61853 14500 ft 160 kts 357°
2026-04-11 08:35 -36.37205 174.61519 14737 ft 161 kts 356°
2026-04-11 08:35 -36.36119 174.61183 14982 ft 161 kts 356°
2026-04-11 08:35 -36.35030 174.60839 15192 ft 162 kts 356°
2026-04-11 08:35 -36.33931 174.60503 15369 ft 166 kts 356°
2026-04-11 08:36 -36.32764 174.60146 15442 ft 175 kts 355°
2026-04-11 08:36 -36.31582 174.59770 15674 ft 175 kts 355°
2026-04-11 08:36 -36.30414 174.59408 15889 ft 176 kts 355°
2026-04-11 08:36 -36.29225 174.59041 16086 ft 176 kts 355°
2026-04-11 08:37 -36.28032 174.58667 16287 ft 176 kts 355°
2026-04-11 08:37 -36.26827 174.58300 16393 ft 184 kts 354°
2026-04-11 08:37 -36.25586 174.57912 16627 ft 183 kts 355°
2026-04-11 08:37 -36.24346 174.57526 16815 ft 185 kts 354°
2026-04-11 08:38 -36.23090 174.57140 16907 ft 192 kts 354°
2026-04-11 08:38 -36.21730 174.56724 16798 ft 209 kts 354°
2026-04-11 08:38 -36.20277 174.56274 16769 ft 219 kts 353°
2026-04-11 08:38 -36.18804 174.55601 16756 ft 235 kts 339°
2026-04-11 08:39 -36.17358 174.54613 16747 ft 243 kts 339°
2026-04-11 08:39 -36.15850 174.53606 16740 ft 249 kts 339°
2026-04-11 08:39 -36.14300 174.52593 16733 ft 254 kts 339°
2026-04-11 08:39 -36.12724 174.51560 16727 ft 258 kts 339°
2026-04-11 08:40 -36.11123 174.50508 16722 ft 262 kts 338°
2026-04-11 08:40 -36.09500 174.49443 16707 ft 266 kts 339°
2026-04-11 08:40 -36.07876 174.48374 16707 ft 269 kts 339°
2026-04-11 08:40 -36.06211 174.47284 16700 ft 271 kts 339°
2026-04-11 08:41 -36.04534 174.46185 16701 ft 273 kts 339°
2026-04-11 08:41 -36.02841 174.45078 16570 ft 280 kts 338°
2026-04-11 08:41 -36.01073 174.43926 16233 ft 293 kts 338°
2026-04-11 08:41 -35.99252 174.42732 15849 ft 306 kts 338°
2026-04-11 08:42 -35.97333 174.41479 15429 ft 317 kts 338°
2026-04-11 08:42 -35.95345 174.40174 15007 ft 327 kts 338°
2026-04-11 08:42 -35.93304 174.38844 14560 ft 336 kts 338°
2026-04-11 08:43 -35.89089 174.36082 13649 ft 350 kts 336°
2026-04-11 08:43 -35.87158 174.34139 13149 ft 364 kts 320°
2026-04-11 08:43 -35.85342 174.32010 12666 ft 366 kts 322°
2026-04-11 08:43 -35.83463 174.29873 12180 ft 369 kts 322°
2026-04-11 08:44 -35.81594 174.27721 11975 ft 363 kts 322°
2026-04-11 08:44 -35.79748 174.25580 11559 ft 365 kts 322°
2026-04-11 08:44 -35.77882 174.23441 11081 ft 368 kts 322°
2026-04-11 08:44 -35.75997 174.21270 10592 ft 372 kts 322°
2026-04-11 08:45 -35.74094 174.19088 10089 ft 375 kts 322°
2026-04-11 08:45 -35.72201 174.16907 9605 ft 378 kts 322°
2026-04-11 08:45 -35.70271 174.14695 9076 ft 380 kts 322°
2026-04-11 08:45 -35.68332 174.12466 8570 ft 381 kts 322°
2026-04-11 08:46 -35.66439 174.10293 8078 ft 362 kts 322°
2026-04-11 08:46 -35.64644 174.08227 7606 ft 342 kts 322°
2026-04-11 08:46 -35.62950 174.06290 7172 ft 323 kts 323°
2026-04-11 08:46 -35.61345 174.04456 6759 ft 308 kts 323°
2026-04-11 08:47 -35.59805 174.02698 6354 ft 296 kts 323°
2026-04-11 08:47 -35.58212 174.01256 5972 ft 272 kts 347°
2026-04-11 08:47 -35.56467 174.00614 5608 ft 257 kts 356°
2026-04-11 08:47 -35.55331 174.00243 5383 ft 252 kts 357°
2026-04-11 08:48 -35.53081 173.99579 4940 ft 245 kts 358°
2026-04-11 08:48 -35.51456 173.99083 4622 ft 243 kts 358°
2026-04-11 08:48 -35.49830 173.98582 4316 ft 237 kts 358°
2026-04-11 08:48 -35.48424 173.98115 4034 ft 195 kts 359°
2026-04-11 08:49 -35.47062 173.97724 3766 ft 199 kts
2026-04-11 08:49 -35.46152 173.97463 3578 ft 200 kts
2026-04-11 08:49 -35.44712 173.97063 3317 ft 224 kts 359°
2026-04-11 08:49 -35.43157 173.96611 3030 ft 240 kts 358°
2026-04-11 08:50 -35.41507 173.96111 2706 ft 247 kts 357°
2026-04-11 08:50 -35.39828 173.95605 2358 ft 249 kts 356°
2026-04-11 08:50 -35.38160 173.95104 2226 ft 242 kts 354°
2026-04-11 08:50 -35.36544 173.94584 2193 ft 238 kts 354°
2026-04-11 08:51 -35.34927 173.94071 2052 ft 241 kts 353°
2026-04-11 08:51 -35.33296 173.93564 1889 ft 243 kts 354°
2026-04-11 08:51 -35.31656 173.93052 1615 ft 239 kts 352°
2026-04-11 08:51 -35.30076 173.92556 1312 ft 232 kts 351°
2026-04-11 08:52 -35.27218 173.91652 688 ft 175 kts 349°
2026-04-11 08:52 -35.26164 173.91335 509 ft 143 kts 350°
2026-04-11 08:52 -35.25243 173.91022 588 ft 149 kts 350°
2026-04-11 08:53 -35.24146 173.90756 1554 ft 148 kts 359°
2026-04-11 08:53 -35.23102 173.90515 2608 ft 179 kts 359°
2026-04-11 08:53 -35.21738 173.90020 3166 ft 233 kts 355°
2026-04-11 08:53 -35.19967 173.89444 3016 ft 280 kts 353°
2026-04-11 08:54 -35.18030 173.88814 2963 ft 294 kts 354°
2026-04-11 08:54 -35.16009 173.88183 2956 ft 304 kts 354°
2026-04-11 08:54 -35.13959 173.87549 2954 ft 310 kts 354°
2026-04-11 08:54 -35.11863 173.86846 2952 ft 317 kts 347°
2026-04-11 08:55 -35.10044 173.85259 2934 ft 325 kts 311°
2026-04-11 08:55 -35.08937 173.82952 2939 ft 306 kts 297°
2026-04-11 08:55 -35.07937 173.80733 2943 ft 291 kts 303°
2026-04-11 08:55 -35.06955 173.78651 2920 ft 277 kts 285°
2026-04-11 08:56 -35.07055 173.76388 2941 ft 263 kts 238°
2026-04-11 08:56 -35.07959 173.74482 2949 ft 257 kts 219°
2026-04-11 08:56 -35.09297 173.73141 2951 ft 245 kts 198°
2026-04-11 08:56 -35.10852 173.72464 2960 ft 232 kts 178°
2026-04-11 08:57 -35.12436 173.72463 2959 ft 223 kts 161°
2026-04-11 08:57 -35.13867 173.73096 2972 ft 217 kts 147°
2026-04-11 08:57 -35.15020 173.74236 2967 ft 213 kts 130°
2026-04-11 08:57 -35.16020 173.75555 2969 ft 218 kts 132°
2026-04-11 08:58 -35.17074 173.76924 2966 ft 224 kts 131°
2026-04-11 08:58 -35.18156 173.78315 2974 ft 227 kts 133°
2026-04-11 08:58 -35.19251 173.79726 2963 ft 227 kts 131°
2026-04-11 08:58 -35.20325 173.81096 2965 ft 219 kts 132°
2026-04-11 08:59 -35.21365 173.82443 2971 ft 217 kts 131°
2026-04-11 08:59 -35.22402 173.83772 2961 ft 214 kts 131°
2026-04-11 08:59 -35.23419 173.85082 2961 ft 211 kts 131°
2026-04-11 08:59 -35.24429 173.86377 2959 ft 210 kts 130°
2026-04-11 09:00 -35.25431 173.87673 2958 ft 209 kts 131°
2026-04-11 09:00 -35.26427 173.88956 2955 ft 207 kts 131°
2026-04-11 09:00 -35.27417 173.90223 2961 ft 206 kts 131°
2026-04-11 09:00 -35.28396 173.91494 2959 ft 205 kts 130°
2026-04-11 09:01 -35.29380 173.92752 2958 ft 204 kts 130°
2026-04-11 09:01 -35.30335 173.93992 2962 ft 203 kts 130°
2026-04-11 09:01 -35.31311 173.95257 2963 ft 201 kts 130°
2026-04-11 09:01 -35.32274 173.96491 2969 ft 199 kts 131°
2026-04-11 09:02 -35.33207 173.97703 2964 ft 197 kts 131°
2026-04-11 09:02 -35.34146 173.98906 2961 ft 188 kts 130°
2026-04-11 09:02 -35.34997 173.99932 2963 ft 159 kts 140°
2026-04-11 09:02 -35.36007 174.00390 2961 ft 154 kts 158°
2026-04-11 09:03 -35.37081 174.00291 2931 ft 162 kts 183°
2026-04-11 09:03 -35.38057 173.99551 2771 ft 173 kts 209°
2026-04-11 09:03 -35.38699 173.98137 2547 ft 231 kts 245°
2026-04-11 09:03 -35.38603 173.95891 2282 ft 298 kts 289°
2026-04-11 09:04 -35.37412 173.93882 2253 ft 280 kts 326°
2026-04-11 09:04 -35.35732 173.93086 2156 ft 243 kts
2026-04-11 09:04 -35.34182 173.93223 2017 ft 211 kts 19°
2026-04-11 09:04 -35.32816 173.93312 1823 ft 183 kts 11°
2026-04-11 09:05 -35.31643 173.93050 1592 ft 161 kts 355°
2026-04-11 09:05 -35.30616 173.92728 1358 ft 147 kts 355°
2026-04-11 09:05 -35.29610 173.92408 1182 ft 149 kts 353°
2026-04-11 09:05 -35.28619 173.92086 1022 ft 148 kts 351°
2026-04-11 09:06 -35.27616 173.91822 1071 ft 148 kts 359°
2026-04-11 09:06 -35.26588 173.91669 1057 ft 149 kts
2026-04-11 09:06 -35.25563 173.91712 1065 ft 149 kts 15°
2026-04-11 09:06 -35.24503 173.91753 1002 ft 151 kts
2026-04-11 09:07 -35.23476 173.91706 949 ft 146 kts 358°
2026-04-11 09:07 -35.22527 173.91363 1050 ft 147 kts 331°
2026-04-11 09:07 -35.21924 173.90391 1040 ft 137 kts 270°
2026-04-11 09:07 -35.22052 173.89373 852 ft 117 kts 192°
2026-04-11 09:08 -35.22524 173.89975 882 ft 107 kts 114°
2026-04-11 09:08 -35.23036 173.90440 962 ft 107 kts 175°
2026-04-11 09:08 -35.23731 173.90555 828 ft 98 kts 160°
2026-04-11 09:08 -35.24358 173.90774 651 ft 92 kts 163°
2026-04-11 09:09 -35.24958 173.90957 572 ft 88 kts 161°
2026-04-11 09:09 -35.25538 173.91143 481 ft 77 kts 163°
2026-04-11 09:09 -35.25972 173.91280 490 ft 54 kts 165°
2026-04-11 09:09 -35.26227 173.91356 490 ft 18 kts 177°
2026-04-11 09:10 -35.26262 173.91259 491 ft 12 kts 306°
2026-04-11 09:10 -35.26228 173.91219 491 ft 10 kts 218°
2026-04-11 09:10 -35.26241 173.91215 486 ft 0 kts 175°